SCOUT A R/B

基本信息
目录编号:
2413
目录名称:
SCOUT A R/B
国际标识:
1966-076B
轨道中心:
EARTH
物体状态:
在轨
发射日期:
1966-08-18 UTC
国别:
美国 (US)
轨道信息
数据来源: 国际轨道数据
星历时间: 2026-07-14T12:33:56+0800
半长轴: 7443.507km
偏心率: 0.0032044
轨道倾角: 88.844°
近地点辐角: 351.524°
升交点赤经: 68.603°
平近点角: 8.537°
近地点: 1041.518km
远地点: 1089.222km
周期: 106.519分钟
每日圈数: 13.518747
详细信息
发射场:
AFWTR
轨道高度:
LEO
数据来源:
AOE Integration Group
参考系:
TEME
时间系统:
UTC
历元类型:
SGP4
2D轨道图
3D轨道图
轨道高度分析图
轨道倾角分析图
轨道综合分析图
查看轨道综合分析图